Wetbulb
59.78 60.94 61.40 61.99 62.32 62.42 62.20 61.97 61.79 61.73 61.60 61.15 60.79 59.75 59.25 58.87 58.88 58.47 58.45 58.50 58.22 58.47 58.65 58.27 58.00 58.60 58.06 57.03 56.71 56.46 55.72 55.31 52.81 53.24 50.35 46.28 43.51 43.94 42.34 42.06 41.32 40.82 40.05
54.74 59.00 60.06 60.87 61.55 61.73 61.68 62.01 62.18 61.57 61.76 61.39 60.93 60.25 59.58 59.27 59.00 58.30 57.88 58.17 58.05 57.87 58.08 57.93 57.73 57.31 56.88 56.76 55.93 55.51 55.32 55.46 54.08 52.09 47.02 43.07 43.79 42.68 42.66 40.83 39.81 39.83 39.33
51.48 54.21 57.14 59.13 59.72 60.45 61.43 61.85 61.94 61.51 61.49 61.35 60.86 60.03 59.84 59.51 59.13 59.01 58.90 58.53 58.40 58.32 58.33 57.94 57.18 56.35 55.09 55.92 55.25 54.88 54.79 53.91 54.05 50.29 44.59 40.99 40.25 39.45 37.15 37.29 37.29 36.77 37.11
48.70 50.46 52.75 55.62 58.25 59.31 60.47 61.27 61.21 61.47 60.79 60.57 60.63 60.59 60.18 59.91 59.32 58.93 58.73 58.64 58.57 58.54 58.28 57.30 56.58 55.56 55.23 54.67 54.03 54.06 53.52 51.83 45.97 41.65 36.85 38.30 36.99 34.73 34.68 34.55 33.59 33.38 33.78
46.43 48.08 50.71 53.44 55.68 57.36 58.02 59.01 60.18 60.12 60.26 60.48 60.12 60.09 60.12 59.66 59.04 58.42 57.88 58.25 58.40 57.48 56.01 55.56 55.64 52.80 47.85 52.40 53.54 53.09 50.16 46.44 38.13 37.95 35.31 34.35 34.39 32.91 34.59 33.70 33.42 32.96 33.21
44.71 46.44 49.13 50.66 52.18 52.85 54.48 55.68 56.68 57.51 58.45 58.78 58.84 59.03 58.62 58.06 52.61 49.94 55.41 57.60 57.36 55.62 54.49 53.91 53.83 43.92 46.04 45.95 46.60 48.01 49.56 47.00 40.89 39.19 35.98 35.59 35.37 35.79 33.59 33.42 33.10 32.22 32.38
44.44 43.79 45.14 47.15 47.86 49.98 51.13 50.97 50.93 54.16 56.00 56.22 57.32 58.00 58.01 58.17 48.84 47.94 47.31 56.80 56.30 55.88 55.08 52.86 49.35 46.84 43.74 47.22 42.78 43.27 42.93 43.62 43.60 42.28 37.01 36.97 34.88 34.92 34.06 32.63 32.60 32.53 32.25
43.98 42.50 40.80 41.28 43.57 44.28 43.31 45.32 48.62 49.83 52.31 53.03 55.30 56.98 57.54 57.01 46.62 46.82 44.75 56.66 55.10 55.27 54.18 51.38 49.18 43.93 43.17 42.23 40.73 38.58 37.60 38.88 39.85 38.95 37.80 36.16 37.50 35.52 35.40 34.52 33.42 32.82 31.63
40.00 40.36 40.19 39.56 40.18 39.84 41.28 45.00 47.56 47.34 48.79 51.19 53.07 53.10 54.11 53.51 44.84 45.66 45.95 53.25 50.69 50.00 50.30 48.99 47.85 43.39 40.71 40.90 38.15 35.75 34.08 33.17 38.60 39.22 39.29 39.68 39.06 37.99 35.52 33.79 32.11 31.35 29.71
36.09 36.87 38.82 38.06 36.77 38.34 40.99 43.05 45.13 46.53 47.40 47.18 44.15 47.85 46.04 51.63 43.05 43.90 46.73 49.05 40.89 38.99 34.33 38.08 36.78 41.24 38.90 40.07 37.88 35.15 33.64 33.11 33.48 33.64 34.49 36.64 37.04 36.64 36.53 32.58 31.71 29.62 30.72
32.32 33.25 34.76 36.67 36.43 38.01 39.93 40.91 42.75 43.27 40.98 39.84 39.98 39.55 38.95 40.47 40.38 42.16 43.18 41.89 43.33 37.40 37.43 35.37 35.90 38.93 39.35 39.42 38.71 35.78 35.95 33.95 35.04 33.47 33.06 32.68 32.74 32.91 33.05 32.60 32.29 32.19 31.47
29.57 30.25 32.26 34.74 35.96 35.89 36.39 39.28 37.92 38.77 39.17 40.36 38.71 38.19 38.14 37.30 38.12 40.89 42.15 43.89 41.85 40.19 37.63 36.70 35.93 38.31 38.76 38.80 36.17 37.52 37.53 34.69 33.44 32.63 32.10 31.53 31.45 31.42 31.91 32.23 32.11 31.96 32.13
27.31 28.77 30.85 33.54 34.20 34.53 35.25 36.87 37.29 38.06 40.14 40.09 39.13 40.81 39.33 34.34 36.20 39.87 40.50 40.04 39.76 36.64 36.61 35.85 36.77 37.65 37.94 37.66 36.76 37.40 33.97 33.43 32.87 32.07 31.80 31.75 32.25 32.46 31.74 30.25 30.28 30.40 30.10
22.90 26.78 30.63 31.76 32.96 34.13 34.75 35.77 36.86 37.65 38.49 39.58 38.48 39.16 37.91 34.83 36.07 36.95 37.86 37.70 35.88 34.78 34.89 34.78 36.15 36.17 36.65 35.55 34.36 35.49 33.47 33.49 33.11 32.80 32.41 31.77 31.33 30.17 29.56 30.04 28.83 28.71 27.76
19.92 24.30 30.36 31.91 32.42 32.75 33.69 34.39 35.21 37.31 38.71 38.10 38.65 38.61 36.78 35.37 36.32 37.63 37.36 35.70 35.38 34.48 33.47 33.66 33.23 32.86 32.37 32.86 33.39 32.89 32.68 32.64 32.43 32.26 31.28 29.96 29.19 29.01 28.74 29.06 28.03 25.05 19.84
17.47 21.86 29.38 31.46 32.45 32.67 32.84 33.37 36.29 36.93 37.51 38.12 38.99 38.38 34.22 39.14 37.96 37.54 37.58 37.38 36.51 35.86 33.16 32.41 31.81 31.67 31.21 31.35 31.25 31.24 31.92 31.90 32.06 31.53 30.72 29.82 28.70 28.08 27.55 24.78 23.55 20.90 18.71
16.90 19.56 27.82 30.29 31.86 32.05 32.39 32.32 32.14 34.08 37.43 37.80 38.23 38.33 37.43 37.17 37.18 37.15 37.35 36.90 36.52 35.92 33.67 32.36 31.69 30.82 30.37 30.64 30.90 30.90 30.34 30.95 31.00 30.38 29.84 28.65 28.04 27.16 25.32 25.20 25.37 23.48 19.40
17.52 21.44 25.38 27.77 30.33 32.03 32.55 32.75 32.93 32.64 32.69 32.99 36.13 37.18 36.86 36.99 36.85 36.96 37.11 36.27 33.47 34.79 33.94 32.54 31.33 31.07 30.60 30.36 30.45 30.33 29.99 28.92 29.06 28.21 27.82 27.36 26.51 25.77 24.63 24.71 24.76 18.44 16.83
17.19 19.18 19.95 22.32 26.86 29.35 31.96 32.32 32.49 32.33 32.46 30.94 31.48 33.97 33.87 36.30 36.64 36.87 37.01 34.47 32.99 32.71 33.40 32.68 32.58 32.04 31.35 31.03 30.44 30.07 28.77 28.29 27.47 26.56 25.99 25.48 25.39 24.77 23.50 22.78 20.45 17.89 14.87
15.43 17.65 18.38 19.22 20.30 22.09 25.26 29.21 29.55 30.19 29.35 29.00 30.50 30.86 32.33 32.84 32.61 33.12 34.08 33.68 33.27 33.05 32.85 32.43 32.21 32.08 31.39 30.67 29.23 28.25 27.69 25.72 24.69 24.55 23.85 23.25 22.37 22.59 20.23 18.23 16.83 14.44 13.22
12.96 14.74 16.38 16.73 17.19 18.33 20.16 21.67 23.43 25.99 27.37 28.34 28.08 27.14 32.91 31.75 31.72 31.94 32.46 32.59 32.44 32.66 32.25 32.41 31.83 30.52 29.55 28.06 26.80 25.30 24.11 23.23 22.52 21.23 19.81 18.87 17.30 16.72 16.16 15.57 13.34 12.15 11.22
10.74 11.67 12.88 13.26 14.78 15.30 15.89 16.64 17.62 18.90 19.77 19.93 20.80 21.48 26.12 23.29 25.14 27.45 25.83 24.85 25.36 26.62 27.75 27.19 25.90 25.46 25.30 24.66 23.88 22.33 20.87 19.27 18.32 18.01 16.92 15.48 14.09 13.26 12.41 11.47 11.11 9.68 8.65
8.43 8.68 9.26 10.08 10.81 12.11 13.06 13.82 14.09 14.46 14.68 15.08 15.55 15.78 16.51 16.47 16.11 15.19 14.61 15.15 16.76 18.47 20.05 20.57 19.05 17.58 18.54 19.70 21.43 21.41 19.34 17.91 17.75 17.16 14.87 12.81 11.78 10.97 10.40 9.37 9.23 7.80 6.98
5.81 6.25 6.35 6.92 7.47 8.10 8.77 9.58 10.73 11.50 12.01 12.44 12.58 12.58 12.56 12.69 12.17 11.83 12.02 12.36 12.45 12.73 14.10 14.72 15.33 14.81 14.19 13.98 14.36 15.21 16.27 16.12 15.69 15.27 13.97 11.52 9.76 9.15 9.26 8.70 7.67 6.52 6.07
3.00 3.25 3.35 3.84 4.34 5.00 5.76 6.58 7.28 7.86 8.90 9.80 10.24 10.69 11.32 11.52 10.99 10.38 10.28 10.56 10.48 10.40 10.47 11.39 12.26 11.96 11.58 11.04 11.04 11.38 12.97 14.45 13.05 12.59 11.49 10.24 9.51 8.97 8.55 7.86 6.82 6.01 5.09
0.15 0.48 0.66 1.25 1.40 1.85 2.67 3.23 4.08 5.06 5.76 6.84 7.81 8.61 9.39 9.66 10.19 10.35 9.99 9.81 9.49 9.38 9.06 9.40 9.69 10.00 10.05 10.12 9.98 10.52 11.60 11.52 9.60 9.83 9.91 9.49 8.40 7.80 7.31 6.82 5.69 5.49 4.54
MSLP
1006.20 1006.20 1006.20 1006.16 1006.19 1006.56 1006.73 1006.91 1007.11 1007.62 1008.10 1008.44 1008.70 1009.26 1009.81 1010.35 1010.79 1011.33 1011.68 1012.01 1012.28 1012.50 1012.84 1013.35 1013.58 1014.03 1014.32 1014.84 1015.15 1015.32 1015.56 1015.97 1016.11 1016.24 1016.51 1017.21 1017.68 1017.97 1018.53 1018.66 1019.03 1019.40 1019.45
1005.72 1005.65 1005.53 1005.40 1005.31 1005.38 1005.53 1005.83 1006.24 1006.54 1006.90 1007.21 1007.62 1008.01 1008.37 1008.77 1009.20 1009.81 1010.33 1010.58 1010.94 1011.30 1011.59 1012.25 1012.46 1013.07 1013.36 1013.83 1014.10 1014.27 1014.54 1014.87 1015.46 1015.84 1016.46 1017.31 1017.59 1018.10 1018.21 1018.64 1019.02 1019.16 1019.14
1005.49 1005.32 1004.99 1004.69 1004.63 1004.60 1004.70 1004.76 1005.03 1005.35 1005.75 1006.06 1006.35 1006.60 1006.84 1007.28 1007.74 1008.30 1008.84 1009.41 1009.81 1010.03 1010.44 1010.95 1011.33 1011.97 1012.47 1012.82 1013.07 1013.37 1013.73 1014.10 1014.53 1015.20 1016.11 1016.92 1017.46 1017.72 1018.52 1018.70 1018.88 1018.93 1018.81
1005.22 1005.10 1004.94 1004.64 1004.11 1003.63 1003.65 1003.89 1004.07 1004.17 1004.41 1004.84 1005.02 1005.29 1005.59 1005.86 1006.35 1006.95 1007.60 1008.09 1008.55 1008.86 1009.21 1009.56 1010.26 1010.62 1011.12 1011.69 1012.15 1012.47 1012.98 1013.40 1014.02 1014.82 1015.55 1016.46 1017.17 1017.81 1018.07 1018.54 1018.97 1019.12 1019.26
1004.63 1004.37 1004.14 1003.73 1003.62 1003.29 1003.19 1003.02 1003.10 1003.26 1003.22 1003.42 1003.75 1004.04 1004.41 1004.80 1005.15 1005.66 1006.12 1006.50 1007.02 1007.44 1007.80 1008.33 1008.85 1009.30 1009.84 1010.42 1011.03 1011.48 1012.09 1012.79 1013.74 1014.65 1015.45 1016.16 1016.72 1017.45 1017.72 1018.01 1018.43 1019.04 1019.09
1004.27 1003.94 1003.50 1003.40 1003.13 1002.88 1002.61 1002.47 1002.49 1002.50 1002.59 1002.75 1002.75 1002.94 1003.20 1003.38 1003.79 1004.35 1004.90 1005.51 1005.89 1006.35 1006.86 1007.40 1007.84 1008.41 1008.97 1009.39 1009.84 1010.28 1010.85 1011.65 1012.67 1013.70 1014.49 1015.14 1015.79 1016.08 1016.62 1017.33 1017.93 1018.79 1019.02
1004.50 1003.85 1003.31 1002.80 1002.61 1002.27 1001.99 1001.90 1001.74 1001.82 1001.88 1001.87 1001.95 1002.06 1002.11 1002.15 1002.70 1003.30 1003.83 1004.24 1004.71 1005.03 1005.62 1006.35 1007.09 1007.60 1008.10 1008.77 1009.36 1009.77 1010.28 1010.73 1011.12 1012.21 1013.48 1014.01 1014.77 1015.34 1015.98 1016.93 1017.40 1017.86 1018.07
1004.84 1004.05 1002.93 1002.24 1002.08 1001.69 1001.54 1001.43 1001.32 1001.21 1001.00 1000.97 1000.98 1001.15 1001.31 1001.16 1001.66 1002.37 1003.03 1003.28 1003.76 1003.98 1004.43 1005.13 1005.84 1006.70 1007.35 1007.98 1008.92 1009.75 1010.39 1010.88 1011.28 1011.82 1012.53 1013.09 1013.51 1014.33 1015.33 1015.95 1016.51 1017.40 1017.99
1005.70 1004.40 1003.41 1002.58 1001.74 1001.29 1001.31 1000.98 1000.66 1000.70 1000.50 1000.14 1000.03 1000.23 1000.46 1000.68 1000.95 1001.41 1002.28 1002.57 1002.82 1003.15 1003.42 1004.05 1004.77 1005.73 1006.62 1007.49 1008.53 1009.47 1010.42 1011.32 1011.53 1011.95 1012.51 1012.81 1013.14 1013.87 1014.89 1015.76 1016.34 1016.89 1017.55
1006.78 1005.59 1004.32 1003.16 1002.03 1001.49 1000.96 1000.38 1000.08 1000.03 999.56 999.56 999.51 999.54 999.67 1000.00 1000.33 1000.68 1001.21 1001.76 1002.51 1003.25 1004.02 1004.17 1004.47 1005.10 1006.21 1007.17 1007.93 1008.99 1010.10 1010.77 1011.41 1012.17 1012.66 1013.02 1013.23 1013.74 1014.41 1015.13 1015.64 1016.06 1016.63
1007.59 1006.18 1004.57 1003.02 1001.79 1000.82 1000.15 999.82 999.66 999.54 999.35 999.10 999.14 999.18 999.37 999.77 1000.04 1000.32 1000.84 1001.22 1001.94 1003.04 1003.70 1004.27 1004.74 1005.06 1005.70 1006.45 1007.07 1008.00 1008.75 1009.89 1010.89 1011.78 1012.49 1013.04 1013.41 1013.78 1014.32 1014.66 1015.13 1015.37 1015.67
1007.80 1006.24 1004.44 1002.88 1001.50 1000.48 999.92 999.53 999.27 999.10 999.19 998.93 998.77 998.89 998.92 999.19 999.30 999.57 999.92 1000.21 1000.97 1001.90 1002.76 1003.50 1004.17 1004.80 1005.46 1006.32 1007.16 1007.84 1008.60 1009.66 1010.70 1011.53 1012.32 1012.88 1013.40 1013.68 1014.11 1014.27 1014.72 1015.54 1015.72
1007.64 1006.03 1004.29 1002.65 1001.46 1000.35 999.66 999.20 999.18 998.87 998.59 998.18 998.15 998.18 998.28 998.62 998.99 999.14 999.57 1000.05 1000.61 1001.34 1002.09 1002.77 1003.72 1004.65 1005.31 1006.29 1006.93 1007.49 1008.31 1009.14 1009.98 1010.84 1011.40 1012.14 1012.54 1013.61 1014.28 1014.41 1014.58 1015.18 1015.66
1007.85 1005.80 1003.94 1002.43 1001.22 1000.22 999.43 998.94 998.70 998.37 998.00 997.76 997.51 997.31 997.45 998.00 998.43 998.77 999.22 999.86 1000.51 1001.35 1002.13 1002.92 1003.71 1004.59 1005.35 1006.16 1006.96 1007.48 1008.00 1008.52 1009.12 1009.94 1010.67 1011.59 1012.53 1013.10 1013.94 1014.22 1014.54 1015.27 1015.50
1008.07 1006.02 1003.69 1002.11 1001.09 1000.04 999.30 998.83 998.40 997.93 997.75 997.37 997.01 997.09 997.26 997.25 997.29 997.88 998.37 999.13 1000.07 1001.09 1002.04 1002.94 1003.79 1004.51 1005.28 1005.91 1006.62 1007.24 1007.95 1008.50 1008.88 1009.41 1010.26 1011.34 1012.26 1012.78 1013.35 1013.81 1014.19 1014.98 1015.11
1008.07 1006.03 1003.84 1002.06 1000.76 999.84 999.03 998.16 997.89 997.50 997.37 997.12 996.79 996.52 996.44 996.60 996.93 997.63 998.20 998.78 999.68 1000.45 1001.57 1002.41 1002.99 1003.69 1004.47 1005.12 1005.84 1006.65 1007.35 1008.11 1008.48 1008.90 1009.59 1010.73 1011.57 1012.17 1012.80 1013.55 1014.06 1014.56 1014.88
1008.38 1006.39 1003.98 1002.29 1000.84 999.84 998.95 998.32 997.59 996.93 996.51 996.53 996.58 996.44 996.39 996.46 996.81 997.33 997.65 998.23 999.19 1000.00 1000.53 1001.62 1002.49 1003.11 1003.74 1004.57 1005.21 1005.73 1006.69 1007.46 1008.18 1008.74 1009.27 1010.50 1011.30 1011.81 1012.37 1013.18 1013.77 1014.25 1014.69
1008.32 1006.52 1004.64 1002.76 1001.05 999.82 998.89 998.34 997.76 997.24 996.42 996.35 996.43 996.31 996.26 996.40 996.52 996.93 997.44 998.13 998.91 999.36 999.93 1000.24 1001.09 1001.86 1002.78 1003.61 1004.75 1005.15 1005.59 1006.73 1007.68 1008.47 1009.12 1009.92 1010.79 1011.41 1011.97 1012.57 1013.33 1014.09 1014.61
1008.52 1006.96 1005.50 1003.69 1001.76 1000.35 999.31 998.42 997.89 997.39 996.82 996.69 996.48 996.27 996.31 996.34 996.52 996.49 996.98 997.08 997.74 998.47 999.21 999.80 1000.02 1000.70 1001.25 1002.31 1003.28 1004.65 1005.38 1006.18 1007.16 1008.09 1008.69 1009.51 1010.37 1011.08 1011.78 1012.53 1013.23 1013.84 1014.45
1009.24 1007.75 1006.32 1004.70 1003.10 1001.49 1000.36 999.20 998.39 997.92 997.37 996.98 996.67 996.37 996.28 996.62 996.77 996.73 996.49 996.87 997.27 997.76 998.37 999.17 999.73 1000.23 1001.02 1000.96 1002.10 1003.57 1004.80 1006.27 1007.37 1007.80 1008.36 1009.41 1010.06 1010.72 1011.61 1012.57 1013.25 1013.78 1014.37
1010.56 1008.93 1007.45 1005.93 1004.53 1003.36 1002.47 1001.61 1000.30 999.34 998.32 997.65 997.16 996.95 996.47 996.48 996.80 996.87 996.68 996.81 997.16 997.39 997.78 998.36 999.22 999.91 1000.66 1000.64 1001.92 1003.11 1004.30 1005.81 1006.99 1007.66 1008.35 1009.29 1009.96 1010.79 1011.72 1012.56 1013.02 1013.52 1014.23
1011.82 1010.62 1009.24 1007.84 1006.25 1004.81 1004.04 1003.25 1002.09 1001.29 999.87 999.16 998.62 998.23 998.37 997.58 997.56 997.63 997.70 997.59 997.62 997.64 997.80 998.49 999.45 1000.32 1000.88 1001.25 1002.14 1003.09 1004.20 1005.45 1006.55 1007.27 1008.13 1009.05 1009.80 1010.67 1011.54 1012.23 1012.80 1013.35 1013.98
1012.86 1011.69 1010.57 1009.32 1007.99 1006.72 1005.84 1005.00 1003.97 1002.89 1001.69 1000.75 1000.54 999.82 1000.30 1000.12 999.97 999.84 999.57 999.35 999.27 999.01 999.04 999.21 999.93 1001.00 1001.66 1002.21 1002.77 1003.66 1004.45 1005.15 1005.96 1006.78 1007.78 1008.77 1009.53 1010.24 1010.83 1011.50 1012.23 1012.97 1013.63
1014.21 1013.12 1011.83 1010.71 1009.49 1008.54 1007.79 1006.97 1006.00 1004.83 1003.82 1002.85 1001.97 1001.89 1002.33 1002.15 1001.91 1001.86 1001.39 1000.99 1000.95 1000.64 1000.47 1000.41 1000.84 1001.61 1002.36 1002.75 1003.46 1004.38 1005.03 1005.51 1006.18 1006.84 1007.49 1008.47 1009.34 1010.03 1010.58 1011.07 1011.77 1012.47 1013.28
1015.49 1014.50 1013.46 1012.32 1011.12 1010.41 1009.43 1008.53 1007.68 1006.86 1005.79 1004.33 1003.95 1004.03 1004.14 1003.60 1003.38 1003.04 1003.16 1002.61 1002.42 1002.36 1002.29 1002.02 1002.10 1002.46 1002.96 1003.64 1004.37 1005.06 1005.30 1005.68 1006.22 1006.82 1007.64 1008.18 1008.89 1009.55 1010.02 1010.58 1011.25 1012.02 1012.81
1016.71 1015.78 1014.77 1013.92 1012.97 1012.04 1011.32 1010.31 1009.35 1008.63 1007.79 1006.82 1005.91 1005.93 1005.43 1004.96 1004.91 1004.62 1004.31 1003.92 1003.53 1003.55 1003.62 1003.67 1003.44 1003.52 1004.13 1004.62 1004.92 1005.44 1005.86 1006.02 1006.52 1007.02 1007.44 1008.02 1008.63 1009.24 1009.69 1010.21 1010.82 1011.59 1012.41
Wind_Speed
12 14 16 16 18 18 19 18 19 18 17 18 18 18 19 19 19 18 18 17 19 18 16 16 17 15 10 8 8 8 9 8 11 5 2 2 3 3 3 3 2 2 2
9 10 14 14 15 17 19 19 18 18 18 17 17 19 19 20 19 20 20 18 19 19 18 16 17 10 13 11 9 12 10 10 9 11 4 3 4 1 2 3 1 2 3
7 9 11 14 15 16 18 18 19 18 18 17 17 19 20 20 20 19 20 19 18 18 17 17 17 13 13 11 11 10 9 9 9 5 4 2 2 3 1 1 2 2 2
7 9 11 13 15 16 16 16 17 17 18 18 18 19 19 19 19 18 18 18 18 17 16 15 15 15 17 14 12 12 10 8 5 3 2 3 3 1 2 2 1 1 2
8 9 12 13 11 12 13 14 15 16 18 19 19 18 18 17 14 18 18 19 19 17 14 15 16 16 17 16 11 12 9 7 3 4 3 2 3 3 4 3 3 1 2
9 11 11 9 9 10 11 12 13 14 15 16 18 18 18 14 18 20 19 16 17 15 15 15 14 12 16 18 18 15 15 12 9 5 4 4 5 4 4 3 3 3 3
15 9 9 10 10 12 12 10 12 14 14 15 17 17 19 18 18 21 22 16 16 16 17 14 11 9 11 11 10 13 12 11 8 9 6 6 5 6 7 5 4 3 3
18 15 10 9 11 10 8 11 13 10 14 13 15 16 17 15 19 21 21 19 14 16 16 15 15 13 12 13 11 8 6 6 7 5 5 6 5 8 7 5 5 4 2
18 17 16 11 11 8 9 13 13 10 12 13 14 15 17 14 19 22 19 16 13 14 13 13 14 13 15 17 12 10 6 3 5 8 7 10 13 14 10 7 5 4 2
19 21 20 15 10 10 12 13 11 12 14 9 10 11 13 15 15 18 19 9 7 4 2 5 10 13 21 20 12 12 10 9 9 6 5 7 9 11 15 3 6 5 3
20 21 20 18 15 12 12 9 10 11 8 8 9 7 7 8 9 16 18 8 9 7 7 6 6 17 21 21 16 12 10 13 13 9 7 6 6 6 5 4 4 3 4
22 22 20 19 14 9 9 10 7 8 10 11 9 7 6 7 11 18 22 20 15 12 11 7 7 18 20 18 12 13 19 15 8 8 8 7 6 6 6 5 5 3 2
21 23 19 18 14 11 11 10 8 9 10 10 9 10 8 4 5 15 20 17 17 7 7 11 16 19 19 15 15 18 17 9 10 9 9 7 6 6 6 4 4 4 3
21 21 19 16 15 12 8 7 9 8 9 11 10 10 8 8 8 8 9 9 11 8 12 10 13 13 12 9 10 12 8 8 9 8 8 6 6 6 5 4 4 4 3
18 18 17 14 15 13 10 7 8 9 8 8 9 7 8 9 10 13 13 9 8 9 10 8 8 8 8 8 8 8 7 7 8 7 8 7 6 7 5 4 3 2 3
17 14 13 12 11 11 9 8 10 13 11 13 10 7 2 5 16 19 19 18 20 25 6 9 10 10 10 10 10 9 8 9 7 8 8 8 8 8 7 3 2 3 3
16 17 13 12 10 10 8 8 9 5 11 14 13 11 9 7 17 20 21 23 25 22 9 10 10 10 9 10 10 10 9 8 9 8 8 8 7 7 8 6 5 3 2
16 19 13 12 10 10 8 8 7 7 5 3 8 10 13 13 19 21 22 20 14 14 10 12 12 12 11 11 10 9 10 9 9 9 9 8 8 9 8 8 6 3 3
14 11 13 11 11 12 9 8 7 6 5 2 1 2 6 13 18 21 24 10 11 11 9 10 11 12 13 12 11 9 10 10 10 9 8 8 8 8 7 6 5 6 5
14 19 15 10 10 10 11 9 5 4 3 3 3 3 4 5 7 9 12 10 9 10 9 10 9 10 11 12 12 11 11 10 9 9 8 7 7 6 6 6 6 6 3
12 13 18 11 10 10 9 9 9 8 6 3 2 3 6 6 6 7 8 8 6 7 8 9 9 9 10 10 11 11 11 9 8 7 7 6 6 6 5 5 5 5 6
11 12 12 11 11 11 11 10 10 9 9 9 8 10 20 5 4 2 2 3 3 4 4 6 6 5 6 9 10 10 10 10 8 8 8 7 7 7 7 7 7 5 5
12 12 12 11 12 14 12 11 11 11 10 10 10 9 9 8 7 6 6 5 5 5 4 6 7 6 5 5 6 7 9 10 9 9 9 9 9 8 8 8 8 7 6
12 13 12 11 12 11 11 12 11 14 12 11 10 9 9 8 8 8 7 6 6 6 5 5 5 7 6 6 5 4 4 5 6 8 11 10 9 9 8 8 8 7 7
11 11 12 11 11 12 11 11 12 12 12 11 11 10 9 8 7 7 6 6 6 6 7 6 4 6 8 7 5 5 6 10 8 9 7 9 10 12 9 8 9 8 7
11 11 10 10 10 10 11 11 11 11 11 11 10 9 9 9 8 7 6 5 4 4 4 3 4 7 6 4 5 6 7 9 8 10 7 8 9 8 8 9 12 8 8
Wind_Direction
227 231 231 228 225 225 227 225 222 221 217 215 208 204 205 209 210 211 215 214 215 216 214 215 222 214 214 204 205 207 213 215 239 232 182 187 149 149 176 170 144 195 231
241 229 230 232 229 227 227 226 224 224 220 216 209 207 207 209 208 209 214 214 215 215 215 215 220 211 212 209 205 215 217 216 227 240 170 176 180 202 135 128 178 232 252
255 247 241 232 229 230 230 227 224 223 223 219 212 210 211 210 209 210 212 214 217 217 216 213 217 201 209 214 213 214 216 216 215 205 169 136 101 136 133 150 206 266 262
247 250 250 243 236 230 229 230 226 221 220 221 218 218 216 213 210 208 208 211 214 216 215 213 208 200 210 210 209 214 211 204 177 157 141 152 146 148 128 150 239 242 284
249 242 245 249 244 239 235 228 226 224 222 220 220 221 218 217 211 207 205 207 210 210 204 201 205 205 204 204 203 208 190 184 153 161 151 128 165 155 182 162 156 169 264
254 249 244 244 238 232 229 225 227 224 224 222 221 219 217 215 209 202 202 208 211 206 204 205 204 197 205 202 200 192 192 183 185 164 163 179 175 177 139 151 148 181 225
288 265 243 239 238 236 235 229 221 224 223 222 223 220 221 217 198 196 196 207 208 207 207 202 196 197 190 189 170 166 172 163 153 167 170 183 154 167 138 158 175 167 170
313 282 261 243 244 244 232 233 236 229 223 219 222 222 222 220 191 196 193 209 210 211 204 196 195 184 181 166 161 154 152 153 156 158 161 164 155 152 152 162 159 141 99
318 304 288 273 259 245 241 242 241 230 231 226 224 215 218 216 193 193 187 209 208 208 199 194 191 181 173 160 155 156 142 123 134 148 162 163 151 148 147 137 164 155 153
325 318 309 290 261 257 254 250 245 235 236 223 223 219 213 216 199 196 191 199 194 174 118 167 175 168 162 166 161 159 164 173 150 136 141 143 146 158 167 156 156 161 139
314 310 306 299 281 265 261 247 237 238 237 219 221 214 206 198 188 192 196 185 191 170 178 166 169 163 169 172 167 173 179 150 159 149 144 144 142 141 154 153 162 147 145
315 310 305 300 291 277 253 258 238 219 230 235 221 226 220 204 193 194 190 196 177 180 186 175 168 169 168 169 159 158 146 143 150 153 157 163 168 162 163 148 131 109 76
313 311 306 304 297 283 272 268 254 236 233 231 221 227 220 189 199 195 187 174 174 153 160 158 157 164 163 165 162 160 151 157 158 165 170 169 162 155 143 128 109 128 142
308 308 310 310 306 296 280 262 254 243 236 243 230 223 203 184 193 180 180 162 151 128 138 144 157 156 159 152 159 161 160 164 163 166 161 143 135 141 159 153 136 161 147
308 304 307 312 310 304 288 266 258 257 245 241 239 222 203 206 201 185 174 166 160 150 128 137 152 158 159 161 168 160 159 158 160 152 149 148 159 155 158 157 131 158 149
308 304 304 306 306 302 294 288 255 254 258 266 265 222 221 212 171 175 172 163 154 149 135 170 172 172 174 168 166 163 165 171 166 158 149 161 167 164 158 142 140 161 157
308 304 303 306 304 301 294 288 288 265 247 241 239 223 191 179 173 177 173 162 160 155 173 176 178 175 169 170 170 168 169 169 159 161 157 164 164 165 163 175 174 167 144
313 313 322 313 310 307 297 286 277 276 272 260 237 211 194 191 181 179 174 156 168 180 189 181 178 173 171 170 176 176 161 157 164 163 161 164 168 172 171 179 180 157 139
325 324 326 319 323 322 302 285 273 264 265 227 200 191 198 185 188 184 179 186 183 190 191 193 182 179 171 169 162 167 163 165 165 168 164 166 168 167 168 163 157 146 125
332 331 334 332 335 344 341 324 296 265 228 215 221 192 168 169 198 202 194 193 191 189 183 183 179 174 174 161 155 160 155 158 165 167 161 163 157 159 157 162 161 154 155
334 336 341 345 353 353 349 345 348 343 338 336 348 311 205 203 213 213 206 199 197 188 180 176 173 168 172 154 154 154 152 156 164 156 152 151 148 149 147 154 146 139 140
344 343 345 349 349 2 3 358 3 357 10 16 8 16 7 21 9 355 22 36 64 90 116 129 123 133 150 150 153 148 152 156 159 155 152 149 149 151 157 153 152 148 150
346 349 350 353 358 2 3 5 8 9 13 21 15 23 15 12 11 14 23 23 30 64 79 111 121 112 99 112 119 146 160 167 170 159 156 162 168 165 163 159 159 153 155
347 349 353 355 0 2 4 2 3 11 15 17 24 27 17 15 18 13 15 22 22 28 44 67 82 107 108 91 91 98 115 134 148 163 159 164 164 159 159 155 158 153 149
348 350 353 354 1 358 356 1 3 2 6 17 20 17 8 13 16 25 16 22 27 25 24 32 63 95 94 106 114 124 141 149 154 158 163 159 162 164 163 160 157 152 148
346 349 353 351 356 358 356 357 0 0 1 2 14 7 5 11 6 5 6 13 31 40 40 27 49 69 96 110 128 149 158 151 153 159 155 156 160 166 163 162 160 160 155